Location: Baia Mare
(47.6567°N, 23.5850°E)
Time: 08:09:03
(UTC+03:00)

ISS - Pass Details

Date: 10 March 2018
Orbit: 403 x 408 km, 51.6° (Epoch: 24 June)

Event Time Altitude Azimuth Distance (km) Brightness Sun altitude
Exits shadow 05:04:05 36° 327° (NNW) 677 -2.9 -18.4°
Maximum altitude 05:04:41 40° 356° (N) 624 -2.9 -18.3°
Drops below altitude 10° 05:07:51 10° 68° (ENE) 1,479 0.3 -17.8°
Sets 05:10:01 0° 76° (ENE) 2,338 1.8 -17.5°
